Terug naar catalogus

BRO-6

ActiefWetenschapSSO
NORAD 52422·PAYLOAD·🇫🇷 France

Gelanceerd May 2, 2022 vanaf Rocket Lab Launch Complex 1

Loading…

Volgende Passages (komende 24 uur)

TLE

VersSource: Space-Track

Epoch: Sep 14, 2026, 21:43 UTC

1 52422U 22047AE  26257.90524275  .00049116  00000-0  66479-3 0  9992
2 52422  97.3362 351.1120 0005262 100.9729 259.2119 15.57554351245082

Volg BRO-6 in realtime met AllMySat

Download on the App Store